Location: The Saddle
(36.8333°N, 80.3417°W)
Time: 07:02:37
(UTC-04:00)

Vanguard 2 Rocket - Pass Details

Date: 07 February 2023
Orbit: 555 x 3316 km, 32.9° (Epoch: 27 March)

Event Time Altitude Azimuth Distance (km) Brightness Sun altitude
Rises 09:57:58 0° 250° (WSW) 4,319 10.2 26.0°
Reaches altitude 10° 10:01:35 10° 246° (WSW) 2,933 9.4 26.5°
Maximum altitude 10:07:52 49° 173° (S) 973 8.2 27.4°
Drops below altitude 10° 10:12:06 10° 98° (E) 1,975 9.5 27.9°
Sets 10:14:07 0° 92° (E) 2,781 10.0 28.2°
